Regional Weather Roundup
Issued by NWS

Home | Current Version | Previous Version | Graphics & Text | Print | Product List | Glossary On
Versions: 1 2 3 4 5 6 7 8 9 10 11 12 13 14 15 16 17 18 19 20 21 22 23 24 25 26 27 28 29 30 31 32 33 34 35 36 37 38 39 40 41 42 43 44 45 46 47 48 49 50
000
ASUS43 KLOT 131408
RWRIL

ILLINOIS REGIONAL WEATHER ROUNDUP
NATIONAL WEATHER SERVICE CHICAGO/ROMEOVILLE IL
800 AM CST SAT FEB 13 2016

NOTE: "FAIR" INDICATES FEW OR NO CLOUDS BELOW 12,000 FEET WITH NO
SIGNIFICANT WEATHER AND/OR OBSTRUCTIONS TO VISIBILITY.

* THESE STATIONS ARE NOT UNDER NWS QUALITY CONTROL. THEY ALSO MAY NOT
  REPORT WEATHER SUCH AS PRECIPITATION OR FOG.

ILZ001-002-007-009-015-016-024-131500-
NORTHWEST ILLINOIS

CITY           SKY/WX    TMP DP  RH WIND       PRES   REMARKS
MOLINE         PTCLDY     6  -6  57 NW5       30.65R WCI  -3
STERLING*      PTCLDY     5 -11  47 NW7       30.60R WCI  -7
SAVANNA*       CLOUDY     4 -11  50 N7        30.64R WCI  -9
$$

ILZ003-004-008-010-011-017-018-131500-
NORTH CENTRAL ILLINOIS

CITY           SKY/WX    TMP DP  RH WIND       PRES   REMARKS
ROCKFORD       MOSUNNY    3 -10  54 NW10      30.61R WCI -12
FREEPORT*      CLEAR      1 -11  56 N8        30.62R WCI -13
ROCHELLE*      SUNNY      4  -9  56 NW9       30.60R WCI -11
DE KALB*       PTSUNNY    3  -9  58 NW7       30.57S WCI  -9
$$

ILZ005-006-012>014-019>023-131500-
NORTHEAST ILLINOIS

CITY           SKY/WX    TMP DP  RH WIND       PRES   REMARKS
CHICAGO-OHARE  MOSUNNY    4  -9  55 NW12      30.57R WCI -12
CHICAGO-MIDWAY MOSUNNY    6 -10  47 NW12      30.58R WCI  -9
AURORA         MOSUNNY    5  -7  57 NW10      30.59R WCI -10
LANSING*       SUNNY      6 -10  48 NW8       30.58R WCI  -7
WAUKEGAN       SUNNY      2 -10  57 NW12      30.56R WCI -15
DUPAGE AIRPORT MOSUNNY    3 -10  54 NW12      30.57R WCI -13
KANKAKEE*      SUNNY      7  -9  49 NW12      30.60R WCI  -9
WHEELING       SUNNY      3  -9  57 NW12      30.58S WCI -13
MORRIS*        SUNNY      6  -6  58 NW8       30.57R WCI  -7
ROMEOVILLE*    SUNNY      5 -10  50 NW9       30.59R WCI  -9
NORTHERLY ISL    N/A      7  -8  50 NW12        N/A  WCI  -8
$$

LMZ740>746-131500-
SOUTHERN LAKE MICHIGAN

STATION/POSITION SKY/WX   TEMP    WIND        PRES    VSBY  WAVE
                          AIR SEA DIR/SP/G                  HT/PER
                          (F)     (DEG/KT/KT) (MB)    (MI)  (FT/S)
HARRISON CRIB               6     300/ 17/ 20   N/A
BURNHAM HARBOR              7     270/  8/ 13   N/A
CALUMET HARBOR              4     280/  7/ 13 1034.1R
BURNS HARBOR                9     300/ 15/ 22 1034.2R
MICHIGAN CITY              11     290/ 19/ 22   N/A
$$

ILZ025>027-034>036-040-047-049-050-058-095>099-131500-
WEST-CENTRAL ILLINOIS

CITY           SKY/WX    TMP DP  RH WIND       PRES   REMARKS
QUINCY         PTCLDY     7  -3  64 N5        30.65R WCI  -2
GALESBURG*     CLOUDY     5  -3  69 NW5       30.64R WCI  -4
MACOMB*        CLOUDY     6  -2  69 N6        30.67R WCI  -5
JACKSONVILLE*  CLOUDY    10  -1  60 NW6       30.66R WCI   1
PITTSFIELD*    MOSUNNY    8  -1  64 N6        30.67R WCI  -2
$$

ILZ028>032-037-038-041>044-048-051>054-059>061-131500-
CENTRAL ILLINOIS

CITY           SKY/WX    TMP DP  RH WIND       PRES   REMARKS
PONTIAC        MOSUNNY    7  -4  61 NW10      30.62S WCI  -8
BLOOMINGTON    MOSUNNY    6  -8  52 N12       30.61R WCI  -9
DECATUR        CLOUDY     9  -5  53 N9        30.63R WCI  -4
PEORIA         CLOUDY     6  -8  52 N5        30.64S WCI  -3
LACON*         MOSUNNY    5  -7  55 NW7       30.64R WCI  -7
LINCOLN*       CLOUDY     9  -2  61 N5        30.65R WCI   0
SPRINGFIELD    CLOUDY     9  -2  61 N5        30.65R WCI   1
TAYLORVILLE    MOSUNNY    9   0  66 N8        30.65R WCI  -4
$$

ILZ033-039-045-046-055>057-062-063-131500-
EAST-CENTRAL ILLINOIS

CITY           SKY/WX    TMP DP  RH WIND       PRES   REMARKS
CHAMPAIGN      CLOUDY     7  -5  57 NW12      30.61R WCI  -8
RANTOUL*       SUNNY      8  -4  58 NW5       30.61R WCI  -1
MATTOON        CLOUDY     8  -4  58 N13       30.61R WCI  -8
PARIS*         MOSUNNY    7  -2  65 NW8       30.62R WCI  -5
$$

ILZ079-100>102-131500-
SOUTHWEST ILLINOIS

CITY           SKY/WX    TMP DP  RH WIND       PRES   REMARKS
ALTON          MOSUNNY   10   0  61 N9        30.66S WCI  -2
BELLEVILLE     MOSUNNY   13   0  56 VRB6      30.65S WCI   4
CAHOKIA*       MOSUNNY   14   0  53 N6        30.68R WCI   5
SPARTA*        SUNNY     13   3  64 N6        30.66R WCI   4
$$

ILZ064>066-069>071-074>076-080>082-084>086-088>090-092>094-131500-
SOUTH-CENTRAL ILLINOIS

CITY           SKY/WX    TMP DP  RH WIND       PRES   REMARKS
CARBONDALE     SUNNY     15   3  59 N9        30.66R WCI   3
CAIRO*         CLOUDY    17   9  70 N13       30.64S WCI   4
EFFINGHAM*     SUNNY     11   0  59 NW9       30.65R WCI  -1
MARION         MOSUNNY   16   5  62 N12       30.66R WCI   3
MT. VERNON     SUNNY     12   0  57 N5        30.64S WCI   4
CENTRALIA*     SUNNY     14   4  66 N7        30.64S WCI   3
SALEM*         MOSUNNY   13   3  62 N9        30.64S WCI   1
METROPOLIS*    SUNNY     18   8  64 N13       30.64R WCI   4
$$

ILZ067-068-072-073-078-083-087-091-131500-
SOUTHEAST ILLINOIS

CITY           SKY/WX    TMP DP  RH WIND       PRES   REMARKS
LAWRENCEVILLE  MOSUNNY   12  -2  53 N13       30.64R WCI  -3
FLORA*         MOSUNNY   14   1  55 N9        30.65R WCI   2
FAIRFIELD*     SUNNY     14   3  63 N10       30.64R WCI   1
HARRISBURG*    SUNNY     15   5  66 N8        30.66R WCI   4
ROBINSON*      SUNNY     10  -3  55 N10       30.64R WCI  -4
CARMI*         SUNNY     14   4  64 N10       30.65R WCI   1
$$

ABBREVIATIONS USED IN REMARKS
   TC - TEMPERATURE IN CELSIUS
  WCI - WIND CHILL INDEX
   HX - HEAT INDEX
  VSB - VISIBILITY
$$




USA.gov is the U.S. government's official web portal to all federal, state and local government web resources and services.